STARLINK-34479

Last updated on Thu Jul 03 2025 00:02:06 GMT+0000 (Coordinated Universal Time)

1 64365U 25126X 25183.58335648 -.01400932 00000+0 -16926-1 0 9996 2 64365 69.9991 310.1908 0003219 266.8237 336.3993 15.63221433 4325
UTC large
Height (km)
Speed (km/s)
/
Latitude / Longitude
Inclination (degrees)
Orbital Period (minutes)
Azimuth
Elevation
Range (km)
Doppler Factor

Next 0 passes for location: London (51.5072 / 0.1276)

Sorry there are no passes over London.